Location: Sungai Anya
(2.6167°N, 114.0500°E)
Time: 19:53:51
(UTC+00:00)

USA 267 - Pass Details

Date: 19 October 2021
Orbit: 1101 x 1107 km, 123.0° (Epoch: 06 December)

Event Time Altitude Azimuth Distance (km) Brightness Sun altitude
Exits shadow 10:46:26 - 104° (ESE) 3,105 5.1 -9.7°
Reaches altitude 10° 10:46:57 10° 102° (ESE) 2,954 4.9 -9.9°
Maximum altitude 10:51:54 23° 51° (NE) 2,120 4.3 -11.1°
Drops below altitude 10° 10:56:50 10° 1° (N) 2,946 5.4 -12.3°
Sets 10:59:50 0° 348° (NNW) 3,901 6.2 -13.0°
